Date String (YYYY-MM-DD hh:mm:ss) UTC,Instrument flags,Ambient pressure (hPa),Sample flow (lpm),Bypass flow (lpm),Sample temperature (°C),Ambient temperature (°C),ASC tube jacket temperature (°C),LED temperature (°C),Box temperature (°C),Sample RH (%),Span deviation,Mass concentration (μg/m³),Mass concentration (μg/m³),Mass concentration (μg/m³)
DateTimeUTC,F1_M11,P_M11,Q1_M11,Q2_M11,T1_M11,T2_M11,T3_M11,T4_M11,T5_M11,U1_M11,ZSPAN_M11,X2_M11,X0_M11,X1_M11
2023-04-27 16:00:00,,0825.2,5.00,0.00,26.1,24.6,00.0,34.3,27.6,13.0,0000.0,0002.33,0006.64,0001.43
2023-04-27 16:01:00,,0825.3,5.01,0.00,26.1,24.6,00.0,34.3,27.7,12.0,0000.0,0002.23,0006.37,0001.36
2023-04-27 16:02:00,,0825.2,4.99,0.00,26.1,24.6,00.0,34.3,27.7,12.5,0000.0,0002.14,0005.98,0001.33
2023-04-27 16:03:00,,0825.3,4.99,0.00,26.1,24.6,00.0,34.3,27.6,12.9,0000.0,0002.13,0006.02,0001.32
2023-04-27 16:04:00,,0825.2,5.01,0.00,26.1,24.6,00.0,34.3,27.6,12.2,0000.0,0002.18,0006.23,0001.32
2023-04-27 16:05:00,,0825.0,5.01,0.00,26.1,24.6,00.0,34.3,27.6,13.1,0000.0,0002.18,0006.28,0001.30
2023-04-27 16:06:00,,0825.0,5.01,0.00,26.1,24.6,00.0,34.3,27.6,13.2,0000.0,0002.16,0006.22,0001.30
2023-04-27 16:07:00,,0825.1,5.00,0.00,26.1,24.6,00.0,34.4,27.6,13.0,0000.0,0002.12,0006.14,0001.30
2023-04-27 16:08:00,,0825.1,5.00,0.00,26.1,24.6,00.0,34.4,27.6,12.6,0000.0,0002.15,0006.23,0001.32
2023-04-27 16:09:00,,0825.1,5.00,0.00,26.1,24.6,00.0,34.4,27.6,13.6,0000.0,0002.11,0006.08,0001.32
2023-04-27 16:10:00,,0825.2,5.00,0.00,26.1,24.6,00.0,34.4,27.6,12.3,0000.0,0002.11,0005.26,0001.32
2023-04-27 16:11:00,,0825.1,5.00,0.00,26.1,24.6,00.0,34.4,27.6,12.4,0000.0,0002.10,0005.60,0001.34
2023-04-27 16:12:00,,0825.1,4.99,0.00,26.1,24.6,00.0,34.4,27.6,12.5,0000.0,0002.20,0005.81,0001.36
2023-04-27 16:13:00,,0825.1,5.00,0.00,26.1,24.6,00.0,34.4,27.6,12.6,0000.0,0002.27,0006.24,0001.37
2023-04-27 16:14:00,,0825.0,5.01,0.00,26.1,24.6,00.0,34.4,27.6,12.4,0000.0,0002.29,0007.51,0001.37
2023-04-27 16:15:00,,0825.0,5.01,0.00,26.1,24.5,00.0,34.4,27.6,12.9,0000.0,0002.29,0007.59,0001.37
2023-04-27 16:16:00,,0825.1,5.00,0.00,26.1,24.5,00.0,34.4,27.6,12.5,0000.0,0002.25,0007.50,0001.38
2023-04-27 16:17:00,,0825.0,5.01,0.00,26.1,24.6,00.0,34.4,27.6,12.5,0000.0,0002.29,0007.65,0001.38
2023-04-27 16:18:00,,0825.1,5.00,0.00,26.1,24.6,00.0,34.4,27.7,12.4,0000.0,0002.36,0007.86,0001.39
2023-04-27 16:19:00,,0825.1,5.00,0.00,26.1,24.5,00.0,34.4,27.7,12.4,0000.0,0002.37,0007.88,0001.39
2023-04-27 16:20:00,,0825.1,5.00,0.00,26.1,24.5,00.0,34.4,27.6,12.3,0000.0,0002.43,0007.98,0001.39
2023-04-27 16:21:00,,0825.0,5.00,0.00,26.1,24.5,00.0,34.4,27.7,12.2,0000.0,0002.43,0007.94,0001.39
2023-04-27 16:22:00,,0824.9,4.99,0.00,26.1,24.5,00.0,34.4,27.7,12.6,0000.0,0002.41,0007.18,0001.38
2023-04-27 16:23:00,,0825.0,5.01,0.00,26.1,24.5,00.0,34.4,27.6,12.3,0000.0,0002.34,0007.53,0001.36
2023-04-27 16:24:00,,0825.0,5.01,0.00,26.1,24.5,00.0,34.4,27.7,12.0,0000.0,0002.33,0007.56,0001.35
2023-04-27 16:25:00,,0825.1,4.99,0.00,26.1,24.6,00.0,34.4,27.7,12.5,0000.0,0002.38,0006.21,0001.36
2023-04-27 16:26:00,,0825.1,4.99,0.00,26.1,24.6,00.0,34.4,27.7,12.1,0000.0,0002.38,0006.02,0001.37
2023-04-27 16:27:00,,0825.0,5.00,0.00,26.1,24.6,00.0,34.4,27.7,12.1,0000.0,0002.43,0006.15,0001.38
2023-04-27 16:28:00,,0825.0,5.01,0.00,26.1,24.6,00.0,34.4,27.7,12.2,0000.0,0002.43,0006.21,0001.38
2023-04-27 16:29:00,,0824.9,5.01,0.00,26.1,24.6,00.0,34.4,27.7,12.7,0000.0,0002.40,0006.64,0001.37
2023-04-27 16:30:00,,0824.9,5.01,0.00,26.1,24.7,00.0,34.4,27.7,13.1,0000.0,0002.41,0006.71,0001.37
2023-04-27 16:31:00,,0824.9,5.00,0.00,26.1,24.7,00.0,34.4,27.7,12.1,0000.0,0002.40,0006.68,0001.36
2023-04-27 16:32:00,,0824.9,4.99,0.00,26.2,24.7,00.0,34.4,27.7,12.0,0000.0,0002.40,0006.93,0001.36
2023-04-27 16:33:00,,0824.9,5.00,0.00,26.2,24.7,00.0,34.4,27.8,12.4,0000.0,0002.41,0006.86,0001.36
2023-04-27 16:34:00,,0824.9,5.01,0.00,26.2,24.7,00.0,34.4,27.7,11.9,0000.0,0002.48,0006.43,0001.38
2023-04-27 16:35:00,,0824.9,4.99,0.00,26.2,24.7,00.0,34.5,27.8,11.9,0000.0,0002.49,0006.43,0001.38
2023-04-27 16:36:00,,0825.0,4.99,0.00,26.2,24.7,00.0,34.5,27.7,11.9,0000.0,0002.49,0006.56,0001.39
2023-04-27 16:37:00,,0824.9,5.00,0.00,26.2,24.7,00.0,34.5,27.8,11.7,0000.0,0002.49,0006.85,0001.39
2023-04-27 16:38:00,,0824.9,5.00,0.00,26.2,24.8,00.0,34.5,27.8,12.1,0000.0,0002.49,0007.23,0001.39
2023-04-27 16:39:00,,0824.9,5.00,0.00,26.2,24.8,00.0,34.5,27.8,12.1,0000.0,0002.52,0007.31,0001.39
2023-04-27 16:40:00,,0824.9,5.00,0.00,26.2,24.8,00.0,34.5,27.8,11.7,0000.0,0002.51,0006.50,0001.40
2023-04-27 16:41:00,,0824.9,5.01,0.00,26.2,24.8,00.0,34.5,27.8,12.0,0000.0,0002.44,0006.35,0001.40
2023-04-27 16:42:00,,0824.9,5.00,0.00,26.2,24.8,00.0,34.5,27.8,11.7,0000.0,0002.40,0006.23,0001.39
2023-04-27 16:43:00,,0824.9,4.98,0.00,26.3,24.9,00.0,34.5,27.8,12.2,0000.0,0002.37,0005.97,0001.39
2023-04-27 16:44:00,,0824.9,5.01,0.00,26.3,24.9,00.0,34.5,27.9,12.0,0000.0,0002.41,0005.82,0001.39
2023-04-27 16:45:00,,0824.9,5.01,0.00,26.3,24.9,00.0,34.5,27.9,11.6,0000.0,0002.40,0005.66,0001.39
2023-04-27 16:46:00,,0824.9,5.00,0.00,26.3,24.9,00.0,34.5,27.9,12.0,0000.0,0002.34,0005.45,0001.38
2023-04-27 16:47:00,,0824.9,4.99,0.00,26.3,24.9,00.0,34.5,27.9,12.0,0000.0,0002.27,0006.56,0001.37
2023-04-27 16:48:00,,0824.8,5.00,0.00,26.3,24.9,00.0,34.6,27.9,11.5,0000.0,0002.30,0006.52,0001.37
2023-04-27 16:49:00,,0824.8,5.01,0.00,26.3,24.9,00.0,34.6,27.9,12.4,0000.0,0002.23,0005.80,0001.37
2023-04-27 16:50:00,,0824.8,5.00,0.00,26.3,24.9,00.0,34.6,27.9,12.1,0000.0,0002.15,0005.60,0001.35
2023-04-27 16:51:00,,0824.8,5.00,0.00,26.3,24.9,00.0,34.6,27.9,12.2,0000.0,0002.13,0005.54,0001.35
2023-04-27 16:52:00,,0824.8,4.99,0.00,26.3,24.9,00.0,34.6,27.9,11.4,0000.0,0002.17,0005.64,0001.35
2023-04-27 16:53:00,,0824.7,5.00,0.00,26.3,24.9,00.0,34.6,28.0,11.7,0000.0,0002.17,0005.75,0001.36
2023-04-27 16:54:00,,0824.7,5.01,0.00,26.4,24.9,00.0,34.6,28.0,11.8,0000.0,0002.20,0005.99,0001.36
2023-04-27 16:55:00,,0824.8,4.99,0.00,26.4,24.9,00.0,34.6,28.0,11.5,0000.0,0002.17,0006.22,0001.37
2023-04-27 16:56:00,,0824.8,4.99,0.00,26.4,24.9,00.0,34.6,27.9,11.7,0000.0,0002.17,0006.29,0001.37
2023-04-27 16:57:00,,0824.7,5.00,0.00,26.4,24.9,00.0,34.6,28.0,12.0,0000.0,0002.18,0006.33,0001.36
2023-04-27 16:58:00,,0824.8,5.01,0.00,26.4,24.9,00.0,34.6,28.0,11.8,0000.0,0002.15,0005.04,0001.35
2023-04-27 16:59:00,,0824.8,5.01,0.00,26.4,24.9,00.0,34.7,28.0,11.7,0000.0,0002.08,0004.67,0001.35
